FW8373 Weather Reports


time (UTC)temp
C
wind
direction
speed
KPH
gust
KPH
rain 1hr
cm
rain 24hr
cm
rain mn
cm
humidity
%
barometer
mb
20260507152748 16 293 9.7 32.2 0.00 0.23 0.23 65 1009.0
20260507150156 16 248 16.1 37.0 0.00 0.23 0.23 64 1004.9
20260507145645 16 248 8.0 37.0 0.03 0.23 0.23 65 1004.5
20260507145136 16 248 12.9 37.0 0.03 0.23 0.23 66 1004.0
20260507144116 16 225 24.1 48.3 0.03 0.23 0.23 67 1003.3
20260507143605 16 203 27.4 48.3 0.03 0.23 0.23 67 1003.8
20260507143057 16 225 19.3 40.2 0.03 0.23 0.23 71 1003.5
20260507142035 15 203 24.1 38.6 0.03 0.23 0.23 76 1003.7
20260507141524 15 270 12.9 38.6 0.03 0.23 0.23 79 1004.1
20260507140505 15 225 24.1 40.2 0.03 0.23 0.23 76 1004.8
20260507135955 16 225 20.9 43.5 0.00 0.20 0.20 71 1005.2
20260507135444 16 225 20.9 43.5 0.00 0.20 0.20 63 1005.2
20260507134935 16 270 22.5 40.2 0.00 0.20 0.20 63 1006.8
20260507134424 16 225 17.7 49.9 0.00 0.20 0.20 63 1005.7
20260507133914 16 203 24.1 49.9 0.00 0.20 0.20 64 1003.8
20260507133405 16 225 17.7 43.5 0.00 0.20 0.20 66 1002.9
20260507132345 17 248 19.3 37.0 0.00 0.20 0.20 66 1002.3
20260507131833 17 248 22.5 35.4 0.00 0.20 0.20 68 1002.0
20260507131322 17 203 12.9 35.4 0.00 0.20 0.20 69 1001.9
20260507130813 17 203 17.7 29.0 0.00 0.20 0.20 69 1002.2
20260507125752 17 270 12.9 38.6 0.00 0.20 0.20 69 1002.8
20260507125245 17 203 16.1 38.6 0.00 0.20 0.20 67 1002.5
20260507124222 18 180 12.9 37.0 0.00 0.20 0.20 67 1002.1
20260507122652 18 248 11.3 29.0 0.00 0.20 0.20 74 1001.7
20260507122143 18 248 19.3 29.0 0.00 0.20 0.20 76 1002.0
20260507121634 18 180 12.9 29.0 0.00 0.20 0.20 78 1001.6
20260507121121 18 180 12.9 29.0 0.00 0.20 0.20 80 1001.6
20260507120611 18 180 11.3 35.4 0.00 0.20 0.20 82 1001.5
20260507120104 18 203 12.9 38.6 0.00 0.20 0.20 84 1001.3
20260507115554 18 225 12.9 38.6 0.00 0.20 0.20 84 1001.1
20260507115043 18 248 6.4 38.6 0.00 0.20 0.20 85 1001.2
20260507114532 18 180 22.5 38.6 0.00 0.20 0.20 85 1000.8
20260507114021 18 203 12.9 35.4 0.00 0.20 0.20 85 1001.1
20260507113000 18 180 12.9 33.8 0.00 0.20 0.20 86 1000.7
20260507112452 18 180 12.9 33.8 0.00 0.20 0.20 86 1000.4
20260507111942 18 180 11.3 32.2 0.00 0.20 0.20 86 1000.6
20260507111429 18 180 20.9 32.2 0.00 0.20 0.20 86 1000.5
20260507110921 18 180 16.1 27.4 0.00 0.20 0.20 86 1000.7
20260507110409 19 180 12.9 33.8 0.00 0.20 0.20 87 1000.4
20260507105859 19 180 14.5 33.8 0.00 0.20 0.20 86 1000.3
20260507104839 19 180 11.3 25.7 0.00 0.20 0.20 88 999.8
20260507104330 19 180 12.9 25.7 0.00 0.20 0.20 88 999.9
20260507103819 19 180 17.7 24.1 0.00 0.20 0.20 88 999.7
20260507102803 19 180 14.5 27.4 0.00 0.20 0.20 87 999.5
20260507101739 19 180 14.5 35.4 0.00 0.20 0.20 87 998.9
20260507101229 19 180 22.5 33.8 0.00 0.20 0.20 87 999.0
20260507100719 19 180 11.3 32.2 0.00 0.20 0.20 88 998.8
20260507100208 19 180 14.5 29.0 0.00 0.20 0.20 88 998.6
20260507095657 19 180 9.7 29.0 0.00 0.20 0.20 88 998.4
20260507095147 19 180 12.9 27.4 0.00 0.20 0.20 88 998.4
20260507094644 19 180 9.7 25.7 0.00 0.20 0.20 89 998.3
20260507094129 19 180 12.9 27.4 0.00 0.20 0.20 89 998.2
20260507093617 19 180 11.3 27.4 0.00 0.20 0.20 89 997.9
20260507093109 20 180 17.7 33.8 0.00 0.20 0.20 90 997.8
20260507092558 20 180 17.7 38.6 0.00 0.20 0.20 90 997.4
20260507092048 20 180 16.1 38.6 0.00 0.20 0.20 90 997.3
20260507091536 20 180 17.7 29.0 0.00 0.20 0.20 90 997.2
20260507090516 20 180 11.3 22.5 0.00 0.20 0.20 91 997.4
20260507090006 19 180 12.9 22.5 0.00 0.20 0.20 91 997.5
20260507085456 19 180 12.9 22.5 0.00 0.20 0.20 91 997.7
20260507084947 19 180 11.3 22.5 0.00 0.20 0.20 92 998.1
20260507084437 19 180 9.7 22.5 0.00 0.20 0.20 92 998.1
20260507083925 19 180 8.0 22.5 0.00 0.20 0.20 92 998.2
20260507083415 19 180 6.4 22.5 0.00 0.20 0.20 92 997.7
20260507082905 19 180 6.4 25.7 0.03 0.20 0.20 91 997.7
20260507082355 19 180 12.9 29.0 0.05 0.20 0.20 91 998.1
20260507081844 19 180 17.7 29.0 0.20 0.20 0.20 91 998.2
20260507081334 19 180 12.9 20.9 0.20 0.20 0.20 91 997.9
20260507080826 19 180 11.3 20.9 0.20 0.20 0.20 91 997.9
20260507080314 19 180 8.0 20.9 0.20 0.20 0.20 92 997.9
20260507075804 20 180 11.3 17.7 0.20 0.20 0.20 91 998.2
20260507074744 20 180 6.4 14.5 0.20 0.20 0.20 91 998.1
20260507074233 20 180 6.4 12.9 0.20 0.20 0.20 90 998.3
20260507073724 20 180 4.8 14.5 0.20 0.20 0.20 90 998.9
20260507073213 20 180 6.4 17.7 0.20 0.20 0.20 89 998.6
20260507072704 20 180 9.7 17.7 0.18 0.18 0.18 87 998.7
20260507071642 22 158 11.3 17.7 0.00 0.00 0.00 81 998.8
20260507071133 22 158 6.4 14.5 0.00 0.00 0.00 82 998.5
20260507070623 22 203 4.8 17.7 0.00 0.00 0.00 83 998.7
20260507070113 22 203 8.0 17.7 0.00 0.00 0.00 86 998.7
20260507065602 23 203 4.8 11.3 0.00 0.00 0.00 90 998.1
20260507065053 23 203 4.8 9.7 0.00 0.00 0.00 91 998.2
20260507064034 23 180 3.2 14.5 0.00 0.00 0.00 92 998.2
20260507063522 22 158 4.8 6.4 0.00 0.00 0.00 92 998.1
20260507063011 22 113 1.6 6.4 0.00 0.00 0.00 92 997.8
20260507062502 22 90 3.2 6.4 0.00 0.00 0.00 92 997.6
20260507061953 22 90 3.2 6.4 0.00 0.00 0.00 91 997.6
20260507061442 22 90 1.6 6.4 0.00 0.00 0.00 91 997.7
20260507060427 23 68 1.6 0.0 0.00 0.00 0.00 90 997.9
20260507060203 22 68 1.6 0.0 0.00 0.00 0.00 97 997.9
20260507055105 23 270 1.6 3.2 0.00 0.00 0.00 90 997.9
20260507054556 23 270 1.6 3.2 0.00 0.00 0.00 90 997.8
20260507054045 23 270 1.6 3.2 0.00 0.00 0.00 89 998.0
20260507053537 23 270 3.2 6.4 0.00 0.00 0.00 89 998.2
20260507053026 23 45 3.2 6.4 0.00 0.00 0.00 89 998.3
20260507052518 23 293 1.6 6.4 0.00 0.00 0.00 89 998.4
20260507050944 23 68 3.2 6.4 0.00 0.00 0.00 88 998.3
20260507050434 23 68 1.6 6.4 0.00 0.00 0.00 88 998.2
20260507045413 23 68 3.2 6.4 0.00 0.00 0.00 88 998.1
20260507044353 23 68 3.2 6.4 0.00 0.00 0.00 87 998.3
20260507043847 24 68 3.2 6.4 0.00 0.00 0.00 87 998.3
20260507043333 24 68 3.2 6.4 0.00 0.00 0.00 86 998.4
20260507042825 24 68 4.8 11.3 0.00 0.00 0.00 86 998.5
20260507042313 24 68 3.2 11.3 0.00 0.00 0.00 86 998.5
20260507041802 24 68 3.2 9.7 0.00 0.00 0.00 86 998.2
20260507041252 24 68 3.2 9.7 0.00 0.00 0.00 86 998.6
20260507040751 24 68 3.2 12.9 0.00 0.00 0.00 85 998.6
20260507040233 24 68 6.4 12.9 0.00 0.00 0.00 85 998.6
20260507035722 24 68 6.4 11.3 0.00 0.00 0.00 85 998.5
20260507035212 24 68 3.2 11.3 0.00 0.00 0.00 84 998.6
20260507034706 25 68 3.2 11.3 0.00 0.00 0.00 83 998.5
20260507034153 25 0 6.4 11.3 0.00 0.00 0.00 83 998.7
20260507033642 25 45 4.8 11.3 0.00 0.00 0.00 84 998.7
20260507033133 25 68 3.2 11.3 0.00 0.00 0.00 84 998.8
20260507032623 24 0 4.8 11.3 0.00 0.00 0.00 85 998.9
20260507032113 24 45 4.8 9.7 0.00 0.00 0.00 84 998.8
20260507031051 25 45 3.2 6.4 0.00 0.00 0.00 84 999.0
20260507030541 25 0 1.6 6.4 0.00 0.00 0.00 84 999.1
20260507030031 25 45 1.6 6.4 0.00 0.00 0.00 84 999.1
20260507024502 25 45 1.6 6.4 0.00 0.00 0.00 83 999.2
20260507023441 25 23 1.6 6.4 0.00 0.00 0.00 83 999.2
20260507022931 25 23 3.2 6.4 0.00 0.00 0.00 82 999.2
20260507021909 25 23 1.6 3.2 0.00 0.00 0.00 82 999.5
20260507021359 25 23 3.2 3.2 0.00 0.00 0.00 82 999.2
20260507020849 25 23 0.0 3.2 0.00 0.00 0.00 81 999.5
20260507020340 25 23 0.0 6.4 0.00 0.00 0.00 81 999.3
20260507015319 25 45 1.6 9.7 0.00 0.00 0.00 81 999.2
20260507014810 25 45 3.2 9.7 0.00 0.00 0.00 81 999.3
20260507014302 25 45 1.6 9.7 0.00 0.00 0.00 82 998.9
20260507013750 25 45 1.6 14.5 0.00 0.00 0.00 82 998.9
20260507013238 25 45 4.8 14.5 0.00 0.00 0.00 82 998.6
20260507012727 25 45 4.8 14.5 0.00 0.00 0.00 81 998.5
20260507012218 25 45 6.4 14.5 0.00 0.00 0.00 81 998.4
20260507011709 25 45 4.8 17.7 0.00 0.00 0.00 81 998.3
20260507011157 25 23 6.4 17.7 0.00 0.00 0.00 80 998.6
20260507010139 25 45 4.8 11.3 0.00 0.00 0.00 80 998.6
20260507005627 25 45 4.8 12.9 0.00 0.00 0.00 79 998.6
20260507005117 25 45 4.8 17.7 0.00 0.00 0.00 79 998.7
20260507004607 25 45 3.2 17.7 0.00 0.00 0.00 79 998.8
20260507004058 25 0 4.8 17.7 0.00 0.00 0.00 79 998.6
20260507003037 25 45 8.0 17.7 0.00 0.00 0.00 79 998.5
20260507002534 25 45 4.8 14.5 0.00 0.00 0.00 79 998.7
20260507002017 25 45 4.8 14.5 0.00 0.00 0.00 79 998.6
20260507001506 26 45 4.8 17.7 0.00 0.00 0.00 79 998.6
20260507000956 25 45 6.4 17.7 0.00 0.00 0.00 79 998.7
20260507000447 26 45 8.0 12.9 0.00 0.00 0.00 78 999.0
20260506235935 26 45 4.8 12.9 0.00 0.00 0.00 77 999.1
20260506235425 26 45 4.8 12.9 0.00 0.00 0.00 76 999.1
20260506234405 26 45 6.4 14.5 0.00 0.00 0.00 75 998.9
20260506233856 27 45 6.4 14.5 0.00 0.00 0.00 75 999.0
20260506232325 27 23 8.0 25.7 0.00 0.00 0.00 73 998.8
20260506231814 27 23 6.4 17.7 0.00 0.00 0.00 73 998.7
20260506231305 27 23 8.0 17.7 0.00 0.00 0.00 72 998.5
20260506230755 27 0 6.4 17.7 0.00 0.00 0.00 71 998.6
20260506230245 27 23 11.3 24.1 0.00 0.00 0.00 70 998.5
20260506225225 27 23 8.0 24.1 0.00 0.00 0.00 71 998.7
20260506224205 27 0 9.7 22.5 0.00 0.00 0.00 72 998.8
20260506223654 27 0 6.4 22.5 0.00 0.00 0.00 72 998.9
20260506222635 27 23 6.4 17.7 0.00 0.00 0.00 73 998.9
20260506222122 27 23 6.4 17.7 0.00 0.00 0.00 73 999.0
20260506221613 27 45 6.4 22.5 0.00 0.00 0.00 72 999.2
20260506221104 28 23 8.0 22.5 0.00 0.00 0.00 72 999.0
20260506220552 28 45 4.8 17.7 0.00 0.00 0.00 72 999.0
20260506220042 28 45 6.4 14.5 0.00 0.00 0.00 72 999.1
20260506215534 28 45 6.4 17.7 0.00 0.00 0.00 72 999.1
20260506214514 28 23 6.4 14.5 0.00 0.00 0.00 71 999.3
20260506214002 28 23 3.2 14.5 0.00 0.00 0.00 71 999.5
20260506213453 28 23 4.8 11.3 0.00 0.00 0.00 71 999.3
20260506212941 28 45 6.4 11.3 0.00 0.00 0.00 71 999.3
20260506211411 28 23 3.2 12.9 0.00 0.00 0.00 69 999.0
20260506210901 29 23 8.0 14.5 0.00 0.00 0.00 68 999.0
20260506210352 29 23 6.4 14.5 0.00 0.00 0.00 68 999.0
20260506205841 29 23 6.4 17.7 0.00 0.00 0.00 67 999.0
20260506205331 30 45 6.4 17.7 0.00 0.00 0.00 67 998.9
20260506204822 30 23 6.4 20.9 0.00 0.00 0.00 66 999.0
20260506203759 30 23 8.0 22.5 0.00 0.00 0.00 65 999.2
20260506203249 30 0 9.7 32.2 0.00 0.00 0.00 65 999.4
20260506202739 30 0 6.4 32.2 0.00 0.00 0.00 64 999.2
20260506202230 30 0 11.3 24.1 0.00 0.00 0.00 64 999.2
20260506201721 30 45 8.0 17.7 0.00 0.00 0.00 64 999.2
20260506201209 31 45 3.2 22.5 0.00 0.00 0.00 64 999.5
20260506200149 31 0 8.0 17.7 0.00 0.00 0.00 63 999.4
20260506195639 31 23 11.3 24.1 0.00 0.00 0.00 63 999.6
20260506195129 31 23 12.9 24.1 0.00 0.00 0.00 64 999.6
20260506194108 31 23 8.0 27.4 0.00 0.00 0.00 63 999.7
20260506193558 31 23 11.3 25.7 0.00 0.00 0.00 63 999.4
20260506193049 31 338 11.3 24.1 0.00 0.00 0.00 63 999.5
20260506192539 31 23 11.3 25.7 0.00 0.00 0.00 63 999.6
20260506192027 31 23 8.0 25.7 0.00 0.00 0.00 63 999.6
20260506191518 31 45 9.7 27.4 0.00 0.00 0.00 63 999.5
20260506191009 31 0 12.9 27.4 0.00 0.00 0.00 63 999.7
20260506190458 30 45 6.4 24.1 0.00 0.00 0.00 64 999.8
20260506185947 31 45 6.4 27.4 0.00 0.00 0.00 63 999.9
20260506185439 31 0 8.0 29.0 0.00 0.00 0.00 63 1000.0
20260506184927 31 23 12.9 29.0 0.00 0.00 0.00 63 1000.2
20260506184417 31 23 12.9 29.0 0.00 0.00 0.00 63 1000.1
20260506183906 31 23 17.7 29.0 0.00 0.00 0.00 63 1000.1
20260506183357 31 0 14.5 24.1 0.00 0.00 0.00 62 1000.3
20260506182847 30 338 12.9 24.1 0.00 0.00 0.00 63 1000.2
20260506181827 30 23 6.4 24.1 0.00 0.00 0.00 63 1000.2
20260506181316 30 23 9.7 24.1 0.00 0.00 0.00 63 1000.1
20260506180807 30 45 12.9 24.1 0.00 0.00 0.00 64 1000.3
20260506175745 31 23 14.5 29.0 0.00 0.00 0.00 62 1000.4
20260506175236 30 0 9.7 29.0 0.00 0.00 0.00 64 1000.5
20260506174725 30 0 16.1 22.5 0.00 0.00 0.00 63 1000.5
20260506174201 30 45 9.7 22.5 0.00 0.00 0.00 64 1000.7
20260506173141 30 23 9.7 29.0 0.00 0.00 0.00 63 1000.9
20260506172631 31 23 9.7 25.7 0.00 0.00 0.00 62 1000.8
20260506172120 30 45 11.3 20.9 0.00 0.00 0.00 63 1001.2
20260506171610 31 68 8.0 24.1 0.00 0.00 0.00 61 1001.4
20260506171108 31 45 9.7 24.1 0.00 0.00 0.00 61 1001.4
20260506170550 31 45 11.3 25.7 0.00 0.00 0.00 62 1001.2
20260506170041 30 23 16.1 25.7 0.00 0.00 0.00 62 1001.4
20260506165530 31 23 6.4 25.7 0.00 0.00 0.00 62 1001.5
20260506165019 31 23 16.1 25.7 0.00 0.00 0.00 63 1001.5
20260506164509 31 0 8.0 25.7 0.00 0.00 0.00 63 1001.7
20260506163959 31 338 6.4 25.7 0.00 0.00 0.00 63 1001.6
20260506163449 30 338 12.9 24.1 0.00 0.00 0.00 64 1001.6
20260506162938 30 0 6.4 24.1 0.00 0.00 0.00 65 1001.8
20260506161923 30 23 6.4 22.5 0.00 0.00 0.00 66 1002.1
20260506161409 30 45 6.4 22.5 0.00 0.00 0.00 65 1002.0
20260506160858 30 23 8.0 27.4 0.00 0.00 0.00 66 1002.2
20260506155839 30 45 12.9 27.4 0.00 0.00 0.00 67 1002.2
20260506154818 30 45 6.4 22.5 0.00 0.00 0.00 67 1002.6